CAPE
nan nan nan nan nan nan nan nan nan nan 0 1 1 1 2 8 1 1 0 nan nan nan nan nan nan nan nan 2 3 3 3 3 1 1 1 2 3 3 4 5 5 5 7 7 7 8 9 11 11 12 13 15 17 17 17 19 19 20 22 23 23 26 29 32 32 36 40 42 41 41 38 35 32 32 30 29 30 30 33 35 35 39 42 46 46 49
0 nan nan nan nan nan nan 0 nan nan 0 1 2 2 2 0 nan nan nan nan nan nan nan nan nan nan nan nan 0 0 1 1 1 1 1 2 4 4 4 4 4 5 5 7 7 9 10 12 12 13 14 16 17 17 19 19 19 20 21 23 23 25 29 30 30 31 34 34 33 33 30 26 23 23 22 23 26 26 29 31 31 35 37 45 45 47
0 0 0 nan nan nan nan 0 0 0 nan 0 2 2 nan nan nan nan nan nan nan nan nan nan nan nan nan nan 0 0 1 1 1 1 2 3 3 3 3 3 3 3 5 6 6 10 10 11 11 13 13 14 16 16 15 17 17 19 20 21 21 23 26 28 28 28 28 26 25 25 22 20 18 18 20 22 26 26 29 33 33 36 41 45 45 51
0 0 0 nan nan nan nan 1 1 1 0 0 0 0 nan nan nan nan nan nan nan nan nan nan nan nan nan nan nan nan 1 1 1 1 1 1 1 1 1 1 1 2 3 5 5 7 9 9 9 11 12 13 14 14 16 17 17 19 20 23 23 26 25 27 27 26 24 24 20 20 19 20 19 19 21 23 27 27 29 31 31 35 42 45 45 51
nan 0 0 0 0 nan nan nan 1 1 3 1 nan nan nan nan nan nan nan nan nan nan nan nan nan nan nan nan nan nan nan 1 0 0 0 0 0 0 nan 0 0 1 1 3 3 5 7 8 8 10 12 13 14 14 18 18 18 21 23 26 26 27 29 27 27 26 24 21 20 20 20 21 22 22 22 24 25 25 28 30 30 32 35 40 40 46
nan 0 1 0 0 0 0 0 2 2 1 nan nan nan nan nan nan nan nan nan nan nan nan nan nan nan nan nan nan nan nan 1 0 0 nan nan nan nan nan nan nan nan 1 3 3 5 7 9 9 12 15 15 18 18 18 23 23 23 23 21 21 21 19 18 18 19 17 18 17 17 19 21 23 23 20 21 25 25 26 29 29 31 33 36 36 40
0 1 1 0 0 1 1 0 1 1 0 nan nan nan nan nan nan nan nan nan nan nan nan nan nan nan nan nan nan nan nan nan nan nan nan nan nan nan nan nan nan nan 1 4 4 7 10 14 14 16 18 20 20 20 20 19 19 18 17 16 16 14 13 13 13 14 14 14 14 14 17 18 18 18 18 18 19 19 23 26 26 31 34 34 34 38
nan nan nan nan nan 0 0 nan nan nan nan nan nan nan nan nan nan nan nan nan nan nan nan nan nan nan nan nan nan nan nan nan nan nan nan nan nan nan nan nan nan 0 4 8 8 11 13 15 15 14 16 15 13 13 12 9 9 7 5 4 4 4 4 5 5 6 8 9 9 9 11 12 12 12 13 13 15 15 18 23 23 30 36 39 39 44
nan nan 0 nan nan nan nan nan nan nan nan nan nan nan nan nan nan nan nan nan nan nan nan nan nan nan nan nan nan nan nan nan nan nan nan nan nan nan nan nan nan 0 3 7 7 7 9 10 10 10 11 10 9 9 6 4 4 2 1 1 1 1 2 3 3 4 6 7 9 9 10 11 11 11 13 14 15 15 17 22 22 27 35 40 40 44
nan nan nan nan nan nan nan nan nan nan nan nan nan nan nan nan nan nan nan nan nan nan nan nan nan nan nan nan nan nan nan nan nan nan nan nan nan nan nan nan nan nan 0 1 1 2 2 2 2 3 3 4 3 3 2 0 0 nan nan 0 0 1 2 2 2 3 4 6 7 7 10 11 12 12 15 15 17 17 19 21 21 25 33 40 40 45
nan nan nan nan nan nan nan nan nan nan nan nan nan nan nan nan nan nan nan nan nan nan nan nan nan nan nan nan nan nan nan nan nan nan nan nan nan nan nan nan nan nan nan nan nan nan nan nan nan nan nan nan nan nan nan nan nan nan nan nan nan nan 0 1 1 2 3 6 7 7 10 13 15 15 17 17 19 19 19 22 22 24 30 37 37 42
nan nan nan nan nan nan nan nan nan nan nan nan nan nan nan nan nan nan nan nan nan nan nan nan nan nan nan nan nan nan nan nan nan nan nan nan nan nan nan nan nan nan nan nan nan nan nan nan nan nan nan nan nan nan nan nan nan nan nan nan nan nan 0 1 1 2 3 6 9 9 12 14 16 16 17 19 18 18 21 23 23 24 27 34 34 38
nan nan nan nan nan nan nan nan nan nan nan nan nan nan nan nan nan nan nan nan nan nan nan nan nan nan nan nan nan nan nan nan nan nan nan nan nan nan nan nan nan nan nan nan nan nan nan nan nan nan nan nan nan nan nan nan nan nan nan nan nan nan 0 1 1 3 5 9 10 10 12 15 16 16 17 19 21 21 22 24 24 26 28 33 33 38
nan nan nan nan nan nan nan nan nan nan nan nan nan nan nan nan nan nan nan nan nan nan nan nan nan nan nan nan nan nan nan nan nan nan nan nan nan nan nan nan nan nan nan nan nan nan nan nan nan nan nan nan nan nan nan nan nan nan nan nan nan 0 1 3 3 5 7 9 9 9 12 14 16 16 18 19 20 20 21 24 24 25 29 32 32 35
nan nan nan nan nan nan nan nan nan nan nan nan nan nan nan nan nan nan nan nan nan nan nan nan nan nan nan nan nan nan nan nan nan nan nan nan nan nan nan nan nan nan nan nan nan nan nan nan nan nan nan nan nan nan nan nan nan nan nan nan nan 0 2 3 3 5 6 8 9 9 11 15 17 17 19 21 23 23 24 24 24 27 27 31 31 35
nan nan nan nan nan nan nan nan nan nan nan nan nan nan nan nan nan nan nan nan nan nan nan nan nan nan nan nan nan nan nan nan nan nan nan nan nan nan nan nan nan nan nan nan nan nan nan nan nan nan nan nan nan nan nan nan nan nan nan nan nan 1 2 4 4 5 6 8 10 10 12 14 16 16 19 22 23 23 24 25 25 26 28 31 31 34
nan nan nan nan nan nan nan nan nan nan nan nan nan nan nan nan nan nan nan nan nan nan nan nan nan nan nan nan nan nan nan nan nan nan nan nan nan nan nan nan nan nan nan nan nan nan nan nan nan nan nan nan nan nan nan nan nan nan nan 0 0 1 2 4 4 6 8 8 9 9 11 13 14 14 17 18 19 19 21 23 23 23 25 28 28 30
nan nan nan nan nan nan nan nan nan nan nan nan nan nan nan nan nan nan nan nan nan nan nan nan nan nan nan nan nan nan nan nan nan nan nan nan nan nan nan nan nan nan nan nan nan nan nan nan nan nan nan nan nan nan nan nan nan nan nan nan nan 1 3 5 5 6 7 8 10 10 10 12 14 14 15 18 19 19 22 23 23 25 29 29 29 33
nan nan nan nan nan nan nan nan nan nan nan nan nan nan nan nan nan nan nan nan nan nan nan nan nan nan nan nan nan nan nan nan nan nan nan nan nan nan nan nan nan nan nan nan nan nan nan nan nan nan nan nan nan nan nan nan nan nan nan 0 0 2 3 5 5 7 8 9 11 11 12 14 15 15 17 20 26 26 29 30 30 35 36 38 38 40
nan nan nan nan nan nan nan nan nan nan nan nan nan nan nan nan nan nan nan nan nan nan nan nan nan nan nan nan nan nan nan nan nan nan nan nan nan nan nan nan nan nan nan nan nan nan nan nan nan nan nan nan nan nan nan nan nan nan nan 0 0 2 4 5 5 6 7 11 12 12 13 15 18 18 20 23 26 26 30 30 30 32 35 38 38 36
nan nan nan nan nan nan nan nan nan nan nan nan nan nan nan nan nan nan nan nan nan nan nan nan nan nan nan nan nan nan nan nan nan nan nan nan nan nan nan nan nan nan nan nan nan nan nan nan nan nan nan nan nan nan nan nan nan nan nan 0 0 2 4 5 5 7 8 12 13 13 13 15 16 16 17 19 22 22 25 26 26 28 30 31 31 33
nan nan nan nan nan nan nan nan nan nan nan nan nan nan nan nan nan nan nan nan nan nan nan nan nan nan nan nan nan nan nan nan nan nan nan nan nan nan nan nan nan nan nan nan nan nan nan nan nan nan nan nan nan nan nan nan nan nan 0 1 1 3 4 6 6 6 8 11 13 13 14 15 15 15 16 16 18 18 19 22 22 24 25 29 29 29
nan nan nan nan nan nan nan nan nan nan nan nan nan nan nan nan nan nan nan nan nan nan nan nan nan nan nan nan nan nan nan nan nan nan nan nan nan nan nan nan nan nan nan nan nan nan nan nan nan nan nan nan nan nan nan nan nan nan 0 1 1 3 4 4 4 7 8 10 11 11 13 14 14 14 15 15 15 15 18 18 18 19 22 26 26 29
nan nan nan nan nan nan nan nan nan nan nan nan nan nan nan nan nan nan nan nan nan nan nan nan nan nan nan nan nan nan nan nan nan nan nan nan nan nan nan nan nan nan nan nan nan nan nan nan nan nan nan nan nan nan nan nan nan 0 1 2 2 2 3 4 4 5 8 9 11 11 12 13 14 14 14 14 14 14 15 15 15 18 20 26 26 31
nan nan nan nan nan nan nan nan nan nan nan nan nan nan nan nan nan nan nan nan nan nan nan nan nan nan nan nan nan nan nan nan nan nan nan nan nan nan nan nan nan nan nan nan nan nan nan nan nan nan nan nan nan nan nan nan nan 0 1 1 1 2 2 3 3 4 6 7 9 9 11 12 11 11 13 15 14 14 14 15 15 18 20 24 24 25
nan nan nan nan nan nan nan 3 6 6 nan nan nan nan nan nan nan nan nan nan nan nan nan nan nan nan nan nan nan nan nan nan nan nan nan nan nan nan nan nan nan nan nan nan nan nan nan nan nan nan nan nan nan nan nan nan nan 0 0 1 1 1 1 1 1 3 4 6 7 7 8 9 10 10 12 13 14 14 14 14 14 17 18 20 20 21
7 0 9 15 15 16 17 16 16 16 22 1 nan nan nan nan nan nan nan nan nan nan nan nan nan 0 nan nan nan nan nan nan nan nan nan nan nan nan nan nan nan nan nan nan nan nan nan nan nan nan nan nan nan nan nan nan nan nan 0 0 0 0 0 1 1 2 3 3 4 4 6 7 8 8 10 12 13 13 13 14 14 15 16 15 15 17
0 1 0 nan nan 1 3 5 7 7 8 13 11 11 7 nan nan nan 6 nan nan nan nan 2 2 1 nan nan nan nan nan nan nan nan nan nan nan nan nan nan nan nan nan nan nan nan nan nan nan nan nan nan nan nan nan nan nan nan nan nan nan nan nan 0 0 0 1 2 3 3 4 7 9 9 9 12 13 13 14 14 14 15 16 9 9 nan
nan nan nan nan nan nan nan nan nan nan 2 6 7 7 1 nan nan nan 0 nan nan 0 2 3 3 1 0 nan nan nan nan nan nan nan nan nan nan nan nan nan nan nan nan nan nan nan nan nan nan nan nan nan nan nan nan nan nan nan nan nan nan nan nan nan nan 0 0 1 3 3 4 6 8 8 8 9 12 12 15 16 16 17 13 3 3 nan
nan nan nan nan nan nan nan nan nan nan 0 2 4 4 nan nan nan nan nan nan nan nan 3 4 4 2 0 nan nan nan nan nan nan nan nan nan nan nan nan nan nan nan nan nan nan nan nan nan nan nan nan nan nan nan nan nan nan nan nan nan nan nan nan nan nan nan 0 1 3 3 4 5 5 5 7 9 10 10 13 15 15 13 3 nan nan nan
nan nan nan nan nan nan nan nan nan nan nan 1 0 0 nan nan nan nan nan nan nan nan 0 1 1 0 0 0 nan nan nan nan nan nan nan nan nan nan nan nan nan nan nan nan nan nan nan nan nan nan nan nan nan nan nan nan nan nan nan nan nan nan nan nan nan 0 0 1 2 2 3 4 5 5 6 8 9 9 11 14 14 11 0 nan nan nan
nan nan nan nan nan nan nan nan nan nan nan nan nan nan nan nan nan nan nan nan nan nan nan nan nan nan nan 0 0 0 nan nan nan nan nan nan nan nan nan nan nan nan nan nan nan nan nan nan nan nan nan nan nan nan nan nan nan nan nan nan nan nan nan nan nan nan nan 0 1 1 2 2 2 2 3 4 5 5 7 9 9 9 nan nan nan nan
nan nan nan nan nan nan nan nan nan nan nan nan nan nan nan nan nan nan nan nan nan nan nan nan nan nan nan nan 0 0 nan nan nan nan nan nan nan nan nan nan nan nan nan nan nan nan nan nan nan nan nan nan nan nan nan nan nan nan nan nan nan nan nan nan nan nan nan nan nan nan 0 0 1 1 1 3 4 4 5 8 8 12 12 1 1 2
nan nan nan nan nan nan nan nan nan nan nan nan nan nan nan nan nan nan nan nan nan nan nan nan nan nan nan nan nan nan nan nan 1 1 0 nan nan nan nan nan nan nan nan nan nan nan nan nan nan nan nan nan nan nan nan nan nan nan nan nan nan nan nan nan nan nan nan nan nan nan nan nan nan nan nan 0 2 2 5 8 8 13 21 13 13 6
nan nan nan nan nan nan nan nan nan nan nan nan nan nan nan nan nan nan nan nan nan nan nan nan nan nan nan nan nan nan nan nan nan nan 0 nan nan nan nan nan nan nan nan nan nan nan nan nan nan 0 nan nan nan nan nan nan nan nan nan nan nan nan nan nan nan nan nan nan nan nan nan nan nan nan nan nan 1 1 7 11 11 16 19 23 23 12
nan nan nan nan nan nan nan nan nan nan nan nan nan nan nan nan nan nan nan nan nan nan nan nan nan nan nan nan nan nan nan nan nan nan nan nan nan nan nan nan nan nan nan nan nan nan nan nan nan 0 0 nan nan nan nan nan nan nan nan nan nan nan nan nan nan nan nan nan nan nan nan nan nan nan nan nan 6 6 9 11 11 13 12 13 13 14
nan nan nan nan nan nan nan nan nan nan nan nan nan nan nan nan nan nan nan nan nan nan nan nan nan nan nan nan nan nan nan nan nan nan nan nan nan nan nan nan nan nan nan nan nan nan nan nan nan nan nan nan nan nan nan nan nan nan nan nan nan nan nan nan nan nan nan nan nan nan nan nan nan nan nan 0 1 1 4 6 6 3 5 6 6 9
nan nan nan nan nan nan nan nan nan nan nan nan nan nan nan nan nan nan nan nan nan nan nan nan nan nan nan nan nan nan nan nan nan nan nan nan nan nan nan nan nan nan nan nan nan nan nan nan nan nan nan nan nan nan nan nan nan nan nan nan nan nan nan nan nan nan nan nan nan nan nan nan nan nan nan nan nan nan nan nan nan nan 0 1 1 4
nan nan nan nan nan nan nan nan nan nan nan nan nan nan nan nan nan nan nan nan nan nan nan nan nan nan nan nan nan nan nan nan nan nan nan nan nan nan nan nan nan nan nan nan nan nan nan nan nan nan nan nan nan nan nan nan nan nan nan nan nan nan nan nan nan nan nan nan nan nan nan nan nan nan nan nan nan nan nan nan nan nan nan nan nan nan
nan nan nan nan nan nan nan nan nan nan nan nan nan nan nan nan nan nan nan nan nan nan nan nan nan nan nan nan nan nan nan nan nan nan nan nan nan nan nan nan nan nan nan nan nan nan nan nan nan nan nan nan nan nan nan nan nan nan 0 nan nan nan nan nan nan nan nan nan nan nan nan nan nan nan nan nan nan nan nan nan nan nan nan nan nan nan
nan nan nan nan nan nan nan nan nan nan nan nan nan nan nan nan nan nan nan nan nan nan nan nan nan nan nan nan nan nan nan nan nan nan nan nan nan nan nan nan nan nan nan nan nan nan nan nan nan nan nan nan nan nan nan nan nan 1 4 nan nan nan nan 0 0 nan nan nan nan nan nan nan nan nan nan nan nan nan nan nan nan nan nan nan nan nan
nan nan nan nan nan nan nan nan 1 1 nan nan nan nan nan nan nan nan nan nan nan nan nan nan nan nan nan nan nan nan nan nan nan nan nan nan nan nan nan nan nan nan nan nan nan nan nan nan nan nan nan nan nan nan nan nan nan 0 1 nan nan nan 1 0 0 nan nan nan nan nan nan nan nan nan nan nan nan nan nan nan nan nan nan nan nan nan
nan 0 nan nan nan nan nan 1 1 1 nan nan nan nan nan nan nan nan nan nan nan nan nan nan nan nan nan nan nan nan nan nan nan nan nan nan nan nan nan nan nan nan nan nan nan nan nan nan nan nan nan nan nan nan nan nan nan 0 0 1 1 1 nan nan nan nan nan nan nan nan nan nan nan nan nan nan nan nan nan nan nan nan nan nan nan nan
0 nan nan nan nan nan 0 0 nan nan nan nan nan nan nan nan nan nan nan nan nan nan nan nan nan nan nan nan nan nan nan nan nan nan nan nan nan nan nan nan nan nan nan nan nan nan nan nan nan nan nan nan nan nan nan nan nan nan nan 1 1 0 nan nan nan nan nan nan nan nan nan nan nan nan nan nan nan nan nan nan nan nan nan nan nan nan
nan nan 0 1 1 0 1 0 0 0 nan nan nan nan nan nan nan nan nan nan nan nan nan nan nan nan nan nan nan nan nan nan nan nan nan nan 1 1 nan nan nan nan nan nan nan nan nan nan nan nan nan nan nan nan nan nan nan 0 0 2 2 2 0 1 1 0 nan nan nan nan nan nan nan nan nan nan nan nan nan nan nan nan nan nan nan nan
nan 0 1 1 1 0 2 1 nan nan nan nan 0 0 nan nan nan nan nan nan nan nan nan nan nan nan 0 0 nan nan nan nan nan nan nan nan nan nan nan nan nan nan nan nan nan nan nan nan nan nan nan nan nan nan nan nan nan nan 0 1 1 0 0 0 0 0 nan nan nan nan nan nan nan nan nan nan nan nan nan nan nan nan nan nan nan nan
nan 0 1 1 1 0 0 0 nan nan 0 0 0 0 nan nan nan nan nan nan nan nan nan 1 1 nan 0 0 nan nan nan nan nan nan nan nan nan nan nan nan nan nan nan nan nan nan nan nan nan nan nan nan nan nan nan nan nan nan nan nan nan nan nan nan nan nan nan nan nan nan nan nan nan nan nan nan nan nan nan nan nan nan nan 0 0 1
1 2 2 0 0 0 nan 0 nan nan 0 0 0 0 nan nan nan nan nan nan nan 1 3 nan nan 0 0 0 nan nan nan nan nan nan nan nan nan nan nan nan nan nan nan nan nan nan nan nan nan nan nan nan nan nan nan nan nan nan nan nan nan nan nan nan nan nan nan nan nan nan nan nan nan nan nan nan nan nan 0 nan nan 0 1 1 1 0
4 3 1 1 1 nan nan nan 0 0 nan nan 0 0 nan 1 11 11 1 nan nan nan nan 0 0 0 0 nan 0 0 1 0 0 0 nan nan nan nan nan nan nan nan nan nan nan nan nan nan nan nan nan nan nan nan nan nan nan nan nan nan nan nan nan nan nan nan nan nan nan nan nan nan nan nan nan nan 0 0 1 1 1 0 nan nan nan nan
1 1 1 1 1 0 nan nan 0 0 nan 0 nan nan nan nan nan nan nan nan nan nan nan nan nan nan nan nan nan nan nan nan nan nan nan nan nan nan nan nan nan nan nan nan nan nan nan nan nan nan 1 nan nan nan nan nan nan nan nan nan nan nan nan nan nan nan nan nan nan nan nan nan 0 0 0 0 1 1 2 0 0 nan nan nan nan nan
2 1 1 1 1 1 nan nan nan nan nan 0 0 0 nan nan nan nan nan nan nan nan nan nan nan nan nan nan nan nan nan nan nan nan nan nan nan nan nan nan nan nan nan nan nan nan nan nan nan nan nan 10 nan nan nan nan nan nan nan nan nan nan nan nan nan nan nan nan nan nan nan 0 1 1 1 1 1 1 0 0 0 nan nan nan nan nan
CIN
nan nan nan nan nan nan nan nan nan nan -0 -0 -0 -0 -0 -0 -1 -1 -1 nan nan nan nan nan nan nan nan -0 -0 -0 -0 -0 -0 -0 -0 -0 -0 -0 -0 -0 -0 -0 -0 -0 -0 -0 -0 -0 -0 -0 -0 -0 -0 -0 -0 -0 -0 -0 -0 -0 -0 -0 -0 -0 -0 -0 -0 -0 -0 -0 -0 -0 -0 -0 -0 -0 -0 -0 -0 -0 -0 -0 -0 -0 -0 -0
-0 nan nan nan nan nan nan -0 nan nan -0 -0 -0 -0 -0 -0 nan nan nan nan nan nan nan nan nan nan nan nan -0 -0 -0 -0 -0 -0 -0 -0 -0 -0 -0 -0 -0 -0 -0 -0 -0 -0 -0 -0 -0 -0 -0 -0 -0 -0 -0 -0 -0 -0 -0 -0 -0 -0 -0 -0 -0 -0 -0 -0 -0 -0 -0 -0 -0 -0 -0 -0 -0 -0 -0 -0 -0 -0 -0 -0 -0 -0
-0 -0 -0 nan nan nan nan -0 -0 -0 nan -0 -0 -0 nan nan nan nan nan nan nan nan nan nan nan nan nan nan -0 -0 -0 -0 -0 -0 -0 -0 -0 -0 -0 -0 -0 -0 -0 -0 -0 -0 -0 -0 -0 -0 -0 -0 -0 -0 -0 -0 -0 -0 -0 -0 -0 -0 -0 -0 -0 -0 -0 -0 -0 -0 -0 -0 -0 -0 -0 -0 -0 -0 -0 -0 -0 -0 -0 -0 -0 -0
-0 -0 -0 nan nan nan nan -0 -0 -0 -0 -0 -1 -1 nan nan nan nan nan nan nan nan nan nan nan nan nan nan nan nan -0 -0 -0 -0 -0 -0 -0 -0 -0 -0 -0 -0 -0 -0 -0 -0 -0 -0 -0 -0 -0 -0 -0 -0 -0 -0 -0 -0 -0 -0 -0 -0 -0 -0 -0 -0 -0 -0 -0 -0 -0 -0 -0 -0 -0 -0 -0 -0 -0 -0 -0 -0 -0 -0 -0 -0
nan -0 -0 -0 -0 nan nan nan -0 -0 -0 -0 nan nan nan nan nan nan nan nan nan nan nan nan nan nan nan nan nan nan nan -0 -0 -0 -0 -0 -0 -0 nan -0 -0 -0 -0 -0 -0 -0 -0 -0 -0 -0 -0 -0 -0 -0 -0 -0 -0 -0 -0 -0 -0 -0 -0 -0 -0 -0 -0 -0 -0 -0 -0 -0 -0 -0 -0 -0 -0 -0 -0 -0 -0 -0 -0 -0 -0 -0
nan -0 -0 -0 -0 -0 -0 -0 -0 -0 -0 nan nan nan nan nan nan nan nan nan nan nan nan nan nan nan nan nan nan nan nan -0 -0 -0 nan nan nan nan nan nan nan nan -0 -0 -0 -0 -0 -0 -0 -0 -0 -0 -0 -0 -0 -0 -0 -0 -0 -0 -0 -0 -0 -0 -0 -0 -0 -0 -0 -0 -0 -0 -0 -0 -0 -0 -0 -0 -0 -0 -0 -0 -0 -0 -0 -0
-0 -0 -0 -0 -0 -0 -0 -0 -0 -0 -0 nan nan nan nan nan nan nan nan nan nan nan nan nan nan nan nan nan nan nan nan nan nan nan nan nan nan nan nan nan nan nan -0 -0 -0 -0 -0 -0 -0 -0 -0 -0 -0 -0 -0 -0 -0 -0 -0 -0 -0 -0 -0 -0 -0 -0 -0 -0 -0 -0 -0 -0 -0 -0 -0 -0 -0 -0 -0 -0 -0 -0 -0 -0 -0 -0
nan nan nan nan nan -0 -0 nan nan nan nan nan nan nan nan nan nan nan nan nan nan nan nan nan nan nan nan nan nan nan nan nan nan nan nan nan nan nan nan nan nan -0 -0 -0 -0 -0 -0 -0 -0 -0 -0 -0 -0 -0 -0 -0 -0 -0 -0 -0 -0 -0 -0 -0 -0 -0 -0 -0 -0 -0 -0 -0 -0 -0 -0 -0 -0 -0 -0 -0 -0 -0 -0 -0 -0 -0
nan nan -0 nan nan nan nan nan nan nan nan nan nan nan nan nan nan nan nan nan nan nan nan nan nan nan nan nan nan nan nan nan nan nan nan nan nan nan nan nan nan -0 -0 -0 -0 -0 -0 -0 -0 -0 -0 -0 -0 -0 -0 -0 -0 -0 -0 -0 -0 -0 -0 -0 -0 -0 -0 -0 -0 -0 -0 -0 -0 -0 -0 -0 -0 -0 -0 -0 -0 -0 -0 -0 -0 -0
nan nan nan nan nan nan nan nan nan nan nan nan nan nan nan nan nan nan nan nan nan nan nan nan nan nan nan nan nan nan nan nan nan nan nan nan nan nan nan nan nan nan -0 -0 -0 -0 -0 -0 -0 -0 -0 -0 -0 -0 -0 -0 -0 nan nan -0 -0 -0 -0 -0 -0 -0 -0 -0 -0 -0 -0 -0 -0 -0 -0 -0 -0 -0 -0 -0 -0 -0 -0 -0 -0 -0
nan nan nan nan nan nan nan nan nan nan nan nan nan nan nan nan nan nan nan nan nan nan nan nan nan nan nan nan nan nan nan nan nan nan nan nan nan nan nan nan nan nan nan nan nan nan nan nan nan nan nan nan nan nan nan nan nan nan nan nan nan nan -0 -0 -0 -0 -0 -0 -0 -0 -0 -0 -0 -0 -0 -0 -0 -0 -0 -0 -0 -0 -0 -0 -0 -0
nan nan nan nan nan nan nan nan nan nan nan nan nan nan nan nan nan nan nan nan nan nan nan nan nan nan nan nan nan nan nan nan nan nan nan nan nan nan nan nan nan nan nan nan nan nan nan nan nan nan nan nan nan nan nan nan nan nan nan nan nan nan -0 -0 -0 -0 -0 -0 -0 -0 -0 -0 -0 -0 -0 -0 -0 -0 -0 -0 -0 -0 -0 -0 -0 -0
nan nan nan nan nan nan nan nan nan nan nan nan nan nan nan nan nan nan nan nan nan nan nan nan nan nan nan nan nan nan nan nan nan nan nan nan nan nan nan nan nan nan nan nan nan nan nan nan nan nan nan nan nan nan nan nan nan nan nan nan nan nan -0 -0 -0 -0 -0 -0 -0 -0 -0 -0 -0 -0 -0 -0 -0 -0 -0 -0 -0 -0 -0 -0 -0 -0
nan nan nan nan nan nan nan nan nan nan nan nan nan nan nan nan nan nan nan nan nan nan nan nan nan nan nan nan nan nan nan nan nan nan nan nan nan nan nan nan nan nan nan nan nan nan nan nan nan nan nan nan nan nan nan nan nan nan nan nan nan -0 -0 -0 -0 -0 -0 -0 -0 -0 -0 -0 -0 -0 -0 -0 -0 -0 -0 -0 -0 -0 -0 -0 -0 -0
nan nan nan nan nan nan nan nan nan nan nan nan nan nan nan nan nan nan nan nan nan nan nan nan nan nan nan nan nan nan nan nan nan nan nan nan nan nan nan nan nan nan nan nan nan nan nan nan nan nan nan nan nan nan nan nan nan nan nan nan nan -0 -0 -0 -0 -0 -0 -0 -0 -0 -0 -0 -0 -0 -0 -0 -0 -0 -0 -0 -0 -0 -0 -0 -0 -0
nan nan nan nan nan nan nan nan nan nan nan nan nan nan nan nan nan nan nan nan nan nan nan nan nan nan nan nan nan nan nan nan nan nan nan nan nan nan nan nan nan nan nan nan nan nan nan nan nan nan nan nan nan nan nan nan nan nan nan nan nan -0 -0 -0 -0 -0 -0 -0 -0 -0 -0 -0 -0 -0 -0 -0 -0 -0 -0 -0 -0 -0 -0 -0 -0 -0
nan nan nan nan nan nan nan nan nan nan nan nan nan nan nan nan nan nan nan nan nan nan nan nan nan nan nan nan nan nan nan nan nan nan nan nan nan nan nan nan nan nan nan nan nan nan nan nan nan nan nan nan nan nan nan nan nan nan nan -0 -0 -0 -0 -0 -0 -0 -0 -0 -0 -0 -0 -0 -0 -0 -0 -0 -0 -0 -0 -0 -0 -0 -0 -0 -0 -0
nan nan nan nan nan nan nan nan nan nan nan nan nan nan nan nan nan nan nan nan nan nan nan nan nan nan nan nan nan nan nan nan nan nan nan nan nan nan nan nan nan nan nan nan nan nan nan nan nan nan nan nan nan nan nan nan nan nan nan nan nan -0 -0 -0 -0 -0 -0 -0 -0 -0 -0 -0 -0 -0 -0 -0 -0 -0 -0 -0 -0 -0 -0 -0 -0 -0
nan nan nan nan nan nan nan nan nan nan nan nan nan nan nan nan nan nan nan nan nan nan nan nan nan nan nan nan nan nan nan nan nan nan nan nan nan nan nan nan nan nan nan nan nan nan nan nan nan nan nan nan nan nan nan nan nan nan nan -0 -0 -0 -0 -0 -0 -0 -0 -0 -0 -0 -0 -0 -0 -0 -0 -0 -0 -0 -0 -0 -0 -0 -0 -0 -0 -0
nan nan nan nan nan nan nan nan nan nan nan nan nan nan nan nan nan nan nan nan nan nan nan nan nan nan nan nan nan nan nan nan nan nan nan nan nan nan nan nan nan nan nan nan nan nan nan nan nan nan nan nan nan nan nan nan nan nan nan -0 -0 -0 -0 -0 -0 -0 -0 -0 -0 -0 -0 -0 -0 -0 -0 -0 -0 -0 -0 -0 -0 -0 -0 -0 -0 -0
nan nan nan nan nan nan nan nan nan nan nan nan nan nan nan nan nan nan nan nan nan nan nan nan nan nan nan nan nan nan nan nan nan nan nan nan nan nan nan nan nan nan nan nan nan nan nan nan nan nan nan nan nan nan nan nan nan nan nan -0 -0 -0 -0 -0 -0 -0 -0 -0 -0 -0 -0 -0 -0 -0 -0 -0 -0 -0 -0 -0 -0 -0 -0 -0 -0 -0
nan nan nan nan nan nan nan nan nan nan nan nan nan nan nan nan nan nan nan nan nan nan nan nan nan nan nan nan nan nan nan nan nan nan nan nan nan nan nan nan nan nan nan nan nan nan nan nan nan nan nan nan nan nan nan nan nan nan -0 -0 -0 -0 -0 -0 -0 -0 -0 -0 -0 -0 -0 -0 -0 -0 -0 -0 -0 -0 -0 -0 -0 -0 -0 -0 -0 -0
nan nan nan nan nan nan nan nan nan nan nan nan nan nan nan nan nan nan nan nan nan nan nan nan nan nan nan nan nan nan nan nan nan nan nan nan nan nan nan nan nan nan nan nan nan nan nan nan nan nan nan nan nan nan nan nan nan nan -0 -0 -0 -0 -0 -0 -0 -0 -0 -0 -0 -0 -0 -0 -0 -0 -0 -0 -0 -0 -0 -0 -0 -0 -0 -0 -0 -0
nan nan nan nan nan nan nan nan nan nan nan nan nan nan nan nan nan nan nan nan nan nan nan nan nan nan nan nan nan nan nan nan nan nan nan nan nan nan nan nan nan nan nan nan nan nan nan nan nan nan nan nan nan nan nan nan nan -0 -0 -0 -0 -0 -0 -0 -0 -0 -0 -0 -0 -0 -0 -0 -0 -0 -0 -0 -0 -0 -0 -0 -0 -0 -0 -0 -0 -0
nan nan nan nan nan nan nan nan nan nan nan nan nan nan nan nan nan nan nan nan nan nan nan nan nan nan nan nan nan nan nan nan nan nan nan nan nan nan nan nan nan nan nan nan nan nan nan nan nan nan nan nan nan nan nan nan nan -0 -0 -0 -0 -0 -0 -0 -0 -0 -0 -0 -0 -0 -0 -0 -0 -0 -0 -0 -0 -0 -0 -0 -0 -0 -0 -0 -0 -0
nan nan nan nan nan nan nan -8 -21 -21 nan nan nan nan nan nan nan nan nan nan nan nan nan nan nan nan nan nan nan nan nan nan nan nan nan nan nan nan nan nan nan nan nan nan nan nan nan nan nan nan nan nan nan nan nan nan nan -0 -0 -0 -0 -0 -0 -0 -0 -0 -0 -0 -0 -0 -0 -0 -0 -0 -0 -0 -0 -0 -0 -0 -0 -0 -0 -0 -0 -0
-5 -13 -0 -0 -0 -0 -0 -0 -0 -0 -0 -22 nan nan nan nan nan nan nan nan nan nan nan nan nan -9 nan nan nan nan nan nan nan nan nan nan nan nan nan nan nan nan nan nan nan nan nan nan nan nan nan nan nan nan nan nan nan nan -0 -0 -0 -0 -0 -0 -0 -0 -0 -0 -0 -0 -0 -0 -0 -0 -0 -0 -0 -0 -0 -0 -0 -0 -0 -0 -0 -0
-2 -1 -1 nan nan -0 -0 -0 -0 -0 -0 -0 -0 -0 -18 nan nan nan -3 nan nan nan nan -5 -5 -4 nan nan nan nan nan nan nan nan nan nan nan nan nan nan nan nan nan nan nan nan nan nan nan nan nan nan nan nan nan nan nan nan nan nan nan nan nan -0 -0 -0 -0 -0 -0 -0 -0 -0 -0 -0 -0 -0 -0 -0 -0 -0 -0 -0 -0 -0 -0 nan
nan nan nan nan nan nan nan nan nan nan -0 -0 -0 -0 -14 nan nan nan -16 nan nan -24 -9 -4 -4 -4 -6 nan nan nan nan nan nan nan nan nan nan nan nan nan nan nan nan nan nan nan nan nan nan nan nan nan nan nan nan nan nan nan nan nan nan nan nan nan nan -0 -0 -0 -0 -0 -0 -0 -0 -0 -0 -0 -0 -0 -0 -0 -0 -0 -0 -4 -4 nan
nan nan nan nan nan nan nan nan nan nan -0 -0 -0 -0 nan nan nan nan nan nan nan nan -5 -2 -2 -4 -8 nan nan nan nan nan nan nan nan nan nan nan nan nan nan nan nan nan nan nan nan nan nan nan nan nan nan nan nan nan nan nan nan nan nan nan nan nan nan nan -0 -0 -0 -0 -0 -0 -0 -0 -0 -0 -0 -0 -0 -0 -0 -0 -5 nan nan nan
nan nan nan nan nan nan nan nan nan nan nan -2 -0 -0 nan nan nan nan nan nan nan nan -9 -4 -4 -5 -7 -6 nan nan nan nan nan nan nan nan nan nan nan nan nan nan nan nan nan nan nan nan nan nan nan nan nan nan nan nan nan nan nan nan nan nan nan nan nan -0 -0 -0 -0 -0 -0 -0 -0 -0 -0 -0 -0 -0 -0 -0 -0 -0 -13 nan nan nan
nan nan nan nan nan nan nan nan nan nan nan nan nan nan nan nan nan nan nan nan nan nan nan nan nan nan nan -8 -5 -5 nan nan nan nan nan nan nan nan nan nan nan nan nan nan nan nan nan nan nan nan nan nan nan nan nan nan nan nan nan nan nan nan nan nan nan nan nan -0 -0 -0 -0 -0 -0 -0 -0 -0 -0 -0 -0 -0 -0 -0 nan nan nan nan
nan nan nan nan nan nan nan nan nan nan nan nan nan nan nan nan nan nan nan nan nan nan nan nan nan nan nan nan -11 -11 nan nan nan nan nan nan nan nan nan nan nan nan nan nan nan nan nan nan nan nan nan nan nan nan nan nan nan nan nan nan nan nan nan nan nan nan nan nan nan nan -0 -0 -0 -0 -0 -0 -0 -0 -0 -0 -0 -0 -0 -17 -17 -13
nan nan nan nan nan nan nan nan nan nan nan nan nan nan nan nan nan nan nan nan nan nan nan nan nan nan nan nan nan nan nan nan -8 -8 -19 nan nan nan nan nan nan nan nan nan nan nan nan nan nan nan nan nan nan nan nan nan nan nan nan nan nan nan nan nan nan nan nan nan nan nan nan nan nan nan nan -0 -0 -0 -0 -0 -0 -0 -0 -0 -0 -7
nan nan nan nan nan nan nan nan nan nan nan nan nan nan nan nan nan nan nan nan nan nan nan nan nan nan nan nan nan nan nan nan nan nan -24 nan nan nan nan nan nan nan nan nan nan nan nan nan nan -0 nan nan nan nan nan nan nan nan nan nan nan nan nan nan nan nan nan nan nan nan nan nan nan nan nan nan -0 -0 -0 -0 -0 -0 -0 -0 -0 -0
nan nan nan nan nan nan nan nan nan nan nan nan nan nan nan nan nan nan nan nan nan nan nan nan nan nan nan nan nan nan nan nan nan nan nan nan nan nan nan nan nan nan nan nan nan nan nan nan nan -0 -0 nan nan nan nan nan nan nan nan nan nan nan nan nan nan nan nan nan nan nan nan nan nan nan nan nan -0 -0 -0 -0 -0 -0 -0 -0 -0 -0
nan nan nan nan nan nan nan nan nan nan nan nan nan nan nan nan nan nan nan nan nan nan nan nan nan nan nan nan nan nan nan nan nan nan nan nan nan nan nan nan nan nan nan nan nan nan nan nan nan nan nan nan nan nan nan nan nan nan nan nan nan nan nan nan nan nan nan nan nan nan nan nan nan nan nan -1 -1 -1 -0 -0 -0 -0 -0 -0 -0 -0
nan nan nan nan nan nan nan nan nan nan nan nan nan nan nan nan nan nan nan nan nan nan nan nan nan nan nan nan nan nan nan nan nan nan nan nan nan nan nan nan nan nan nan nan nan nan nan nan nan nan nan nan nan nan nan nan nan nan nan nan nan nan nan nan nan nan nan nan nan nan nan nan nan nan nan nan nan nan nan nan nan nan -0 -0 -0 -0
nan nan nan nan nan nan nan nan nan nan nan nan nan nan nan nan nan nan nan nan nan nan nan nan nan nan nan nan nan nan nan nan nan nan nan nan nan nan nan nan nan nan nan nan nan nan nan nan nan nan nan nan nan nan nan nan nan nan nan nan nan nan nan nan nan nan nan nan nan nan nan nan nan nan nan nan nan nan nan nan nan nan nan nan nan nan
nan nan nan nan nan nan nan nan nan nan nan nan nan nan nan nan nan nan nan nan nan nan nan nan nan nan nan nan nan nan nan nan nan nan nan nan nan nan nan nan nan nan nan nan nan nan nan nan nan nan nan nan nan nan nan nan nan nan -2 nan nan nan nan nan nan nan nan nan nan nan nan nan nan nan nan nan nan nan nan nan nan nan nan nan nan nan
nan nan nan nan nan nan nan nan nan nan nan nan nan nan nan nan nan nan nan nan nan nan nan nan nan nan nan nan nan nan nan nan nan nan nan nan nan nan nan nan nan nan nan nan nan nan nan nan nan nan nan nan nan nan nan nan nan -0 -0 nan nan nan nan -11 -11 nan nan nan nan nan nan nan nan nan nan nan nan nan nan nan nan nan nan nan nan nan
nan nan nan nan nan nan nan nan -12 -12 nan nan nan nan nan nan nan nan nan nan nan nan nan nan nan nan nan nan nan nan nan nan nan nan nan nan nan nan nan nan nan nan nan nan nan nan nan nan nan nan nan nan nan nan nan nan nan -2 -0 nan nan nan -5 -5 -5 nan nan nan nan nan nan nan nan nan nan nan nan nan nan nan nan nan nan nan nan nan
nan -1 nan nan nan nan nan -10 -16 -16 nan nan nan nan nan nan nan nan nan nan nan nan nan nan nan nan nan nan nan nan nan nan nan nan nan nan nan nan nan nan nan nan nan nan nan nan nan nan nan nan nan nan nan nan nan nan nan -5 -5 -3 -3 -4 nan nan nan nan nan nan nan nan nan nan nan nan nan nan nan nan nan nan nan nan nan nan nan nan
-3 nan nan nan nan nan -14 -15 nan nan nan nan nan nan nan nan nan nan nan nan nan nan nan nan nan nan nan nan nan nan nan nan nan nan nan nan nan nan nan nan nan nan nan nan nan nan nan nan nan nan nan nan nan nan nan nan nan nan nan -6 -6 -5 nan nan nan nan nan nan nan nan nan nan nan nan nan nan nan nan nan nan nan nan nan nan nan nan
nan nan -11 -8 -8 -9 -9 -16 -14 -14 nan nan nan nan nan nan nan nan nan nan nan nan nan nan nan nan nan nan nan nan nan nan nan nan nan nan -20 -20 nan nan nan nan nan nan nan nan nan nan nan nan nan nan nan nan nan nan nan -5 -2 -3 -3 -5 -9 -8 -8 -10 nan nan nan nan nan nan nan nan nan nan nan nan nan nan nan nan nan nan nan nan
nan -12 -7 -9 -9 -16 -8 -8 nan nan nan nan -16 -16 nan nan nan nan nan nan nan nan nan nan nan nan -4 -4 nan nan nan nan nan nan nan nan nan nan nan nan nan nan nan nan nan nan nan nan nan nan nan nan nan nan nan nan nan nan -5 -2 -2 -7 -9 -10 -10 -12 nan nan nan nan nan nan nan nan nan nan nan nan nan nan nan nan nan nan nan nan
nan -13 -13 -14 -14 -16 -16 -13 nan nan -16 -15 -13 -13 nan nan nan nan nan nan nan nan nan -12 -12 nan -7 -7 nan nan nan nan nan nan nan nan nan nan nan nan nan nan nan nan nan nan nan nan nan nan nan nan nan nan nan nan nan nan nan nan nan nan nan nan nan nan nan nan nan nan nan nan nan nan nan nan nan nan nan nan nan nan nan -28 -28 -23
-7 -6 -10 -14 -14 -18 nan -17 nan nan -14 -14 -15 -15 nan nan nan nan nan nan nan -10 -3 nan nan -11 -9 -11 nan nan nan nan nan nan nan nan nan nan nan nan nan nan nan nan nan nan nan nan nan nan nan nan nan nan nan nan nan nan nan nan nan nan nan nan nan nan nan nan nan nan nan nan nan nan nan nan nan nan -16 nan nan -28 -27 -25 -25 -28
-5 -6 -10 -14 -14 nan nan nan -18 -18 nan nan -13 -13 nan -10 -0 -0 -4 nan nan nan nan -8 -8 -9 -9 nan -9 -9 -3 -5 -7 -7 nan nan nan nan nan nan nan nan nan nan nan nan nan nan nan nan nan nan nan nan nan nan nan nan nan nan nan nan nan nan nan nan nan nan nan nan nan nan nan nan nan nan -8 -8 -10 -15 -15 -21 nan nan nan nan
-11 -11 -11 -12 -12 -12 nan nan -12 -12 nan -6 nan nan nan nan nan nan nan nan nan nan nan nan nan nan nan nan nan nan nan nan nan nan nan nan nan nan nan nan nan nan nan nan nan nan nan nan nan nan -10 nan nan nan nan nan nan nan nan nan nan nan nan nan nan nan nan nan nan nan nan nan -30 -30 -20 -9 -7 -7 -9 -11 -11 nan nan nan nan nan
-3 -5 -10 -9 -9 -7 nan nan nan nan nan -5 -5 -5 nan nan nan nan nan nan nan nan nan nan nan nan nan nan nan nan nan nan nan nan nan nan nan nan nan nan nan nan nan nan nan nan nan nan nan nan nan -0 nan nan nan nan nan nan nan nan nan nan nan nan nan nan nan nan nan nan nan -40 -25 -25 -14 -10 -9 -9 -11 -11 -11 nan nan nan nan nan
Wind_Speed
2 2 2 4 4 4 3 4 5 5 4 4 3 3 2 3 3 2 3 3 3 2 2 2 3 4 6 9 10 11 12 11 11 11 11 11 10 10 10 10 10 10 10 10 10 10 10 10 10 10 10 10 10 10 10 10 10 10 10 10 10 11 11 11 11 12 12 12 12 12 12 12 12 12 12 12 13 13 13 13 13 14 14 14 14 15
2 2 2 3 4 4 3 4 5 5 5 4 4 4 3 3 2 2 2 2 3 2 2 2 3 4 5 7 9 11 12 12 11 11 11 10 10 10 9 9 10 10 10 10 10 10 10 10 10 10 10 10 10 10 10 9 9 9 9 10 10 10 11 11 11 11 12 12 12 12 12 12 12 12 12 13 13 13 13 13 14 14 14 14 15 15
2 1 2 3 3 3 3 4 4 4 4 4 4 4 4 3 2 2 2 2 2 2 2 2 3 3 4 6 8 11 12 12 12 11 10 10 9 9 9 9 9 10 10 10 10 10 10 10 9 9 9 9 9 9 9 9 9 9 9 10 10 10 11 11 11 12 12 12 12 12 12 12 12 13 13 13 13 13 14 14 14 14 14 14 15 15
1 2 2 2 2 2 2 3 3 3 3 3 3 4 3 3 2 2 1 1 1 1 2 2 3 3 4 4 7 10 12 12 12 11 10 9 9 9 9 9 10 10 10 10 10 10 10 10 9 9 9 9 9 9 9 9 9 9 9 10 10 10 11 11 11 11 12 12 12 12 12 12 12 13 13 13 13 14 14 14 14 14 14 14 15 15
1 1 2 1 1 1 1 2 2 2 2 2 2 2 2 2 1 1 1 1 1 1 2 2 3 3 4 4 6 9 12 12 11 10 9 9 9 9 9 10 10 10 11 10 10 10 10 9 9 9 9 9 9 9 9 9 9 9 9 9 10 10 10 11 11 11 12 12 12 12 12 12 12 13 13 13 13 14 14 14 14 14 14 15 15 15
1 1 2 1 1 1 1 1 2 2 2 2 2 2 1 1 1 0 0 1 1 1 2 2 3 3 4 4 6 8 10 10 10 9 8 8 8 9 9 10 10 11 11 10 10 10 10 9 9 9 9 9 9 9 9 9 9 9 9 10 10 10 11 11 11 11 12 12 12 12 12 12 12 12 13 13 13 13 14 14 14 14 15 15 15 15
1 2 2 2 2 1 1 1 1 2 1 1 1 1 1 1 0 0 1 1 2 2 2 3 3 3 3 4 5 7 7 7 7 6 6 7 8 8 9 10 10 10 10 10 10 10 9 9 9 9 8 8 8 8 8 9 9 9 10 10 10 11 11 11 11 12 12 12 12 12 12 12 12 12 12 13 13 13 14 14 14 14 15 15 15 15
2 2 2 2 2 1 1 1 1 1 1 1 1 1 1 0 1 1 2 2 2 2 3 3 3 3 2 2 3 3 4 3 3 4 4 5 6 7 8 9 10 10 10 9 9 9 9 9 9 9 8 8 9 9 9 9 10 10 10 10 10 11 11 11 11 11 12 12 12 12 12 12 12 12 12 12 13 13 13 14 14 14 15 15 15 15
2 2 2 2 1 1 1 1 1 1 1 1 1 1 0 1 1 2 2 2 2 2 2 2 3 3 2 1 1 2 2 1 1 2 3 3 3 5 7 8 8 9 9 9 9 9 9 9 9 9 9 9 10 10 10 10 10 10 10 10 11 11 11 11 11 11 11 11 11 12 12 12 12 12 12 12 12 13 13 13 14 14 15 15 15 16
2 2 2 1 1 1 1 1 0 1 1 1 1 1 1 1 2 2 2 3 2 1 1 1 2 2 2 2 2 2 1 2 2 4 4 4 5 6 7 7 7 7 8 9 9 9 10 10 10 11 11 11 11 11 10 10 10 10 10 10 11 11 11 11 11 11 11 11 11 11 11 11 12 12 12 12 12 13 13 13 14 14 15 15 16 16
2 2 2 1 1 1 1 1 1 1 1 1 0 1 1 2 2 2 3 3 2 1 1 1 1 2 2 2 2 2 1 2 3 4 5 6 6 7 7 7 7 7 8 9 9 10 11 11 11 12 11 11 11 11 11 11 10 11 11 11 11 11 11 11 11 11 11 11 11 11 11 12 12 12 12 12 13 13 13 14 14 14 15 15 16 16
1 1 1 1 1 1 0 0 1 1 1 1 1 1 2 2 2 2 3 3 2 2 1 1 1 1 1 1 2 2 1 1 1 2 3 3 4 4 4 4 5 6 6 7 8 9 11 11 12 12 11 11 11 11 11 11 11 11 11 11 11 11 11 11 11 11 11 11 11 12 12 12 12 13 13 13 13 14 14 14 15 15 15 16 16 17
1 1 1 1 1 0 0 0 1 1 1 1 2 2 3 2 1 2 2 2 2 1 1 1 2 2 2 1 1 1 1 1 1 1 1 2 2 2 2 2 2 3 3 4 5 6 8 10 11 11 11 11 11 12 12 11 11 11 11 11 11 11 11 11 11 11 11 12 12 12 12 13 13 13 14 14 14 15 15 15 15 15 16 16 17 17
1 1 1 1 1 0 0 0 0 1 1 2 2 2 2 1 1 1 1 1 1 1 1 1 2 2 2 1 1 1 1 1 1 1 1 1 1 1 0 1 2 2 2 2 3 4 7 7 7 8 10 10 11 11 11 12 12 12 11 11 11 11 11 11 11 11 12 12 12 13 13 13 14 14 14 15 15 15 15 16 16 16 16 17 17 17
1 1 1 1 1 1 1 0 1 1 2 2 1 1 0 0 1 1 1 0 0 1 1 2 2 2 3 2 1 1 1 0 0 1 1 2 2 1 1 1 2 2 2 2 3 4 6 5 4 5 6 7 8 9 11 11 11 11 11 11 11 11 11 11 12 12 12 12 13 13 13 14 14 14 15 15 15 16 16 16 16 16 16 17 17 17
1 1 0 0 1 1 1 1 1 1 1 1 0 0 1 1 1 1 1 1 0 1 2 2 2 2 3 2 1 1 1 1 0 0 1 2 2 1 1 0 1 2 2 2 3 3 4 3 4 4 5 7 10 11 12 11 11 11 11 11 11 11 12 12 12 12 13 13 13 13 14 14 14 15 15 16 16 16 16 16 16 17 17 17 17 18
1 1 1 1 1 1 1 1 1 1 1 1 1 0 1 1 1 1 1 1 1 1 1 1 1 1 2 3 2 1 1 1 0 1 1 2 2 1 2 1 1 3 3 3 3 3 3 3 4 4 5 8 10 12 12 12 12 12 12 12 12 12 12 12 12 13 13 13 14 14 14 14 15 15 15 16 16 16 16 17 17 17 17 17 18 18
1 0 0 1 1 1 1 1 1 1 1 1 1 1 1 1 1 1 1 1 1 1 1 1 1 1 1 2 2 1 1 1 0 1 2 3 3 2 1 1 1 2 3 3 3 3 3 3 4 4 6 9 11 12 12 12 12 12 12 12 12 12 12 12 13 13 13 13 14 14 14 14 15 15 15 16 16 16 16 17 17 17 17 18 18 18
0 0 1 1 1 1 1 1 1 1 0 0 0 1 1 1 1 1 1 1 2 2 2 1 1 1 2 2 3 2 1 1 0 2 3 4 3 2 1 1 1 2 3 3 3 3 3 4 5 7 9 11 12 12 12 12 13 13 13 13 13 13 13 12 13 13 13 13 13 14 14 14 14 15 15 15 15 15 16 16 16 17 17 17 17 17
1 1 1 2 1 0 1 1 1 2 2 2 1 1 1 0 0 1 0 1 1 2 2 2 1 2 2 2 3 2 1 1 1 2 3 3 3 2 1 1 1 2 3 3 3 3 3 3 4 6 9 10 11 12 13 13 13 13 13 13 13 13 13 12 12 12 13 13 13 13 13 14 14 14 14 15 15 15 16 16 16 16 17 17 17 17
1 1 2 2 2 1 0 2 2 2 2 2 2 2 1 0 0 0 0 0 1 1 1 1 1 2 2 2 3 2 1 1 1 2 3 3 3 2 1 1 1 2 3 3 3 3 2 3 3 4 6 9 11 13 13 14 14 14 14 13 13 13 12 12 12 12 12 12 13 13 13 14 14 14 14 15 15 15 16 16 16 16 17 17 17 17
2 2 3 3 3 2 2 2 3 3 3 3 2 1 1 1 0 1 1 1 1 1 1 2 2 3 2 3 3 2 0 1 0 1 2 3 3 3 1 1 1 1 3 3 3 2 2 2 2 4 6 10 12 14 15 15 15 14 14 13 13 12 12 12 12 12 12 12 13 13 13 14 14 14 14 15 15 15 15 16 16 16 17 17 17 17
2 2 3 3 3 3 3 3 3 3 3 3 3 3 3 2 2 2 2 2 2 2 3 3 3 2 2 2 2 2 0 1 1 1 0 2 3 3 1 0 0 1 3 3 2 2 2 2 3 4 7 11 14 15 16 15 15 14 13 13 12 12 11 11 11 11 12 12 13 13 14 14 14 14 14 14 14 15 15 15 16 16 16 16 17 17
2 2 3 3 4 3 3 3 3 3 3 3 3 3 2 2 2 2 2 3 2 2 2 1 1 2 2 2 2 2 1 1 2 2 1 2 3 3 2 1 1 2 3 3 2 2 3 3 3 4 5 10 13 15 15 15 14 14 13 12 11 11 11 11 11 12 12 13 14 14 14 14 14 14 14 14 14 14 14 15 15 15 16 16 16 17
2 2 3 3 4 4 3 3 3 3 3 3 3 2 2 1 1 1 1 1 1 1 0 1 2 2 2 2 2 2 2 0 2 2 1 1 2 3 2 1 1 2 4 3 2 2 3 4 4 4 4 8 11 14 15 14 14 12 11 11 10 10 10 11 12 13 14 14 14 14 14 14 13 13 14 14 14 14 14 15 15 15 16 16 16 17
1 1 1 2 3 4 5 6 5 4 3 2 2 2 2 1 0 0 0 0 0 1 2 3 3 3 3 2 2 2 2 1 1 2 2 1 2 3 3 1 1 2 4 3 3 3 4 5 5 4 4 5 8 11 12 12 12 10 9 9 9 10 11 12 13 14 14 14 14 14 14 14 14 14 14 14 14 14 15 15 15 15 16 16 16 16
5 6 7 8 9 9 10 10 11 10 10 7 5 3 2 2 1 1 2 1 1 1 2 3 3 3 3 2 2 2 2 1 0 2 2 1 2 3 3 1 1 2 3 4 4 4 5 6 5 4 4 4 5 6 9 9 9 8 8 9 10 11 13 14 14 15 15 15 14 14 14 14 14 14 14 14 14 15 15 15 15 16 16 15 14 12
8 8 9 9 10 10 10 10 10 11 11 11 10 9 4 1 1 2 2 2 1 1 2 2 3 3 3 2 2 2 2 2 1 1 2 1 1 2 2 2 1 2 3 4 4 5 6 6 5 4 4 3 2 3 5 6 6 7 8 10 11 13 14 14 15 15 15 15 14 14 14 14 14 14 14 15 15 15 15 15 15 15 14 12 8 6
7 7 7 7 8 8 9 9 9 10 10 10 10 9 6 2 2 2 2 1 1 1 2 3 3 3 3 3 3 3 2 2 1 1 3 1 0 2 2 1 1 1 2 3 4 4 4 4 3 3 2 2 2 2 3 4 5 6 8 10 12 13 14 14 14 15 15 14 14 14 14 15 15 15 15 15 15 15 15 16 15 13 10 8 6 5
5 5 5 5 6 6 6 5 6 7 9 10 10 9 6 3 2 2 2 1 1 2 3 3 3 3 3 3 3 3 2 2 1 1 3 2 0 2 1 1 1 1 1 3 3 3 3 3 2 1 1 2 2 2 2 3 3 4 5 8 9 11 12 13 14 14 14 14 14 15 15 15 15 15 15 16 16 16 16 16 14 11 7 5 5 4
3 3 3 3 3 3 3 3 4 5 7 8 8 7 5 2 1 1 1 2 2 2 3 3 3 3 3 2 2 2 2 2 1 1 3 1 1 1 1 1 1 1 0 1 3 3 3 3 2 2 1 2 2 2 2 3 3 3 3 4 5 7 10 11 12 13 13 14 14 15 15 15 16 16 16 16 16 16 16 16 14 10 6 5 4 4
2 2 2 2 2 3 3 3 3 3 4 4 4 4 4 2 2 2 2 2 3 3 3 3 3 3 3 3 3 3 2 2 2 2 2 1 1 1 1 1 2 2 1 1 2 3 3 3 3 2 2 3 3 3 3 3 3 3 3 3 3 5 8 9 10 11 11 12 13 14 15 15 16 16 16 16 16 16 16 16 14 11 6 5 5 5
2 2 2 3 3 3 3 3 3 3 3 3 3 3 3 2 2 2 2 3 3 3 3 2 3 3 3 3 4 3 3 2 3 3 3 2 1 1 1 1 2 2 2 2 2 3 3 4 4 4 3 3 3 3 3 3 3 3 3 3 3 4 6 6 7 7 8 9 10 11 13 14 15 15 16 16 16 16 16 16 15 13 9 6 6 6
2 3 3 3 3 3 3 3 3 3 3 3 3 2 2 1 1 1 1 2 2 2 3 2 2 2 2 3 3 4 3 3 3 4 3 2 1 2 2 2 2 3 2 2 2 3 4 4 5 5 5 4 3 3 3 3 3 3 3 3 3 3 4 4 4 5 6 6 6 7 9 10 11 13 14 14 15 15 16 16 16 15 14 10 8 7
3 3 3 3 3 3 4 4 3 3 3 2 2 2 2 1 1 1 0 0 1 1 2 2 2 2 2 2 3 3 4 3 3 3 2 1 1 2 2 2 2 2 2 3 3 3 3 5 6 6 6 5 4 3 2 3 3 2 2 3 3 3 4 4 4 4 5 5 5 5 5 5 6 8 9 11 13 14 15 16 16 17 16 15 12 9
2 3 3 3 3 3 4 4 3 3 2 2 2 2 2 2 2 2 2 1 1 1 1 2 2 2 3 3 3 3 4 3 3 3 3 2 2 2 2 3 2 2 2 3 3 3 3 5 6 7 7 7 6 4 3 2 2 2 2 3 3 4 4 4 4 4 4 5 5 5 4 4 5 5 7 10 13 14 16 16 17 17 17 17 16 14
2 2 2 2 2 2 3 3 3 2 2 1 2 2 2 2 2 2 2 1 2 2 2 3 3 3 4 3 4 4 4 3 3 3 4 3 3 3 3 3 3 3 3 3 3 3 4 5 6 6 6 6 5 5 4 3 3 3 3 3 4 4 4 5 5 5 4 5 5 5 5 4 5 6 7 10 12 13 14 15 16 16 17 17 17 17
1 2 2 2 2 1 2 2 2 2 2 1 1 2 2 2 2 2 2 2 2 3 3 3 3 4 5 6 5 5 4 4 5 5 5 4 4 3 4 3 4 4 3 3 4 4 4 5 5 6 5 5 5 6 6 5 5 5 5 4 4 4 5 5 4 4 4 5 5 6 6 6 5 5 6 7 7 7 8 8 10 12 14 14 15 17
1 2 2 2 2 2 1 2 2 3 2 2 1 2 2 2 2 2 2 2 3 3 4 4 4 4 5 6 6 6 6 6 6 6 6 5 4 4 4 4 4 4 4 4 4 4 5 5 5 5 5 5 6 6 6 5 6 6 6 6 5 5 4 4 4 4 4 4 5 6 6 6 5 4 4 4 4 4 5 5 6 8 8 7 9 12
2 2 2 2 2 2 2 2 3 3 2 1 1 1 1 1 2 2 2 2 3 3 4 4 4 4 4 5 6 6 6 5 5 5 5 4 4 4 4 4 4 4 4 4 4 5 5 5 6 6 6 6 6 6 6 6 6 7 8 6 5 4 4 4 4 4 4 4 5 5 5 5 4 4 5 4 4 4 4 4 5 6 6 5 5 6
2 2 3 2 2 2 2 3 3 3 1 1 0 1 1 1 2 2 2 2 2 2 3 3 3 3 3 4 4 4 5 5 5 5 4 5 5 5 4 4 4 4 4 4 4 5 5 6 6 7 6 6 7 7 8 7 8 9 9 8 7 7 6 7 6 6 5 5 4 4 5 5 6 6 6 6 5 5 5 5 5 6 6 5 4 4
3 3 3 2 2 2 3 3 4 3 1 0 0 1 1 1 1 2 2 2 2 2 2 2 2 3 3 3 3 4 4 5 6 6 6 7 6 6 5 5 4 4 4 4 5 5 6 6 6 7 7 6 7 7 7 8 8 8 8 8 8 8 8 7 6 4 4 4 4 4 6 6 5 5 6 6 6 5 6 6 7 8 7 6 5 5
3 3 3 3 3 3 4 4 4 3 2 1 1 1 1 1 2 2 2 2 2 3 3 3 3 3 4 4 4 3 4 4 5 6 6 6 6 6 6 6 5 5 4 4 5 5 6 6 7 7 7 6 7 7 9 8 8 7 7 8 8 7 6 5 4 4 4 5 5 5 5 5 6 6 6 6 6 5 6 7 9 10 9 7 6 6
3 3 3 3 3 3 3 3 2 2 2 2 2 2 2 2 3 3 3 3 3 3 3 3 2 3 4 4 4 3 3 3 4 4 5 6 6 6 6 6 6 6 5 4 4 4 5 6 6 7 6 6 7 8 8 8 8 8 7 7 8 7 6 6 6 6 6 6 5 5 5 5 5 6 6 6 6 6 5 6 6 7 8 8 7 7
3 3 3 3 3 3 3 2 2 2 2 2 3 3 3 3 3 3 3 3 3 3 3 3 3 3 3 3 3 3 3 3 3 3 4 5 7 8 7 6 6 5 5 5 5 5 5 5 6 6 6 6 7 8 8 8 8 8 8 8 8 8 8 7 7 7 7 7 6 6 5 5 5 6 6 7 7 7 6 6 6 7 7 7 7 8
3 3 3 3 2 2 3 3 3 2 3 3 3 3 3 3 3 3 3 3 3 3 3 3 3 3 4 4 4 4 3 3 3 3 3 4 4 5 5 5 5 5 5 5 6 6 6 6 6 6 6 7 7 8 8 8 8 8 8 8 8 8 8 8 7 7 7 7 7 6 6 6 6 6 7 8 8 8 7 7 7 7 7 7 7 7
3 3 3 2 2 2 2 3 3 3 3 3 3 3 3 2 2 3 3 3 3 3 3 3 3 3 4 4 4 4 4 4 4 4 3 3 3 4 4 4 5 5 5 5 6 6 7 7 7 7 7 7 8 8 8 8 8 8 8 8 8 7 7 7 7 7 7 6 6 6 5 5 6 7 8 8 8 8 7 6 6 7 7 7 7 7
3 3 3 2 2 2 2 2 2 3 3 3 3 3 3 3 3 4 3 3 3 3 4 3 3 4 4 4 4 4 5 5 5 4 3 3 3 3 3 3 4 4 5 6 7 7 8 8 8 8 8 8 8 9 9 8 8 8 8 8 8 8 8 7 7 7 6 6 6 6 5 5 7 8 8 9 8 8 7 6 6 6 5 6 6 6
3 3 2 2 2 2 3 2 3 3 3 3 3 3 3 3 5 5 4 3 3 3 3 4 4 4 5 4 4 5 6 5 5 4 3 3 3 3 3 3 3 3 4 5 5 6 7 8 9 10 10 9 9 9 9 9 8 8 7 7 7 7 8 8 8 7 6 6 6 6 5 5 6 7 7 8 9 9 8 7 6 6 5 6 6 6
3 3 3 3 3 3 3 3 3 3 3 4 4 4 3 3 3 3 3 3 3 3 4 4 5 5 5 5 5 5 5 5 5 4 3 3 3 3 3 2 3 3 4 3 4 4 4 5 6 9 11 12 11 10 9 9 8 8 7 7 7 7 7 7 7 7 6 7 6 6 6 5 5 5 5 7 8 9 9 9 8 7 5 5 6 6
3 3 3 3 3 3 3 3 3 3 4 4 4 4 4 3 2 2 2 3 3 4 4 4 5 5 6 6 6 6 6 5 5 5 4 3 3 3 3 3 3 3 4 4 3 3 3 3 4 5 7 11 12 12 8 7 7 7 7 7 6 5 6 6 6 6 7 7 6 6 5 5 5 5 5 6 8 9 10 9 8 7 5 5 5 6
Wind_Direction
82 102 122 138 142 148 159 161 162 164 169 170 174 182 193 185 174 169 188 198 201 205 215 220 227 239 251 260 264 268 271 275 277 280 282 285 286 288 290 291 292 292 292 290 288 287 285 284 283 282 281 281 281 282 283 284 285 286 287 288 288 288 289 288 289 289 288 289 290 291 292 293 293 293 293 292 292 291 291 291 290 290 288 287 287 286
82 97 118 145 152 157 165 169 171 172 173 174 176 178 179 177 173 172 187 200 203 205 214 224 229 234 241 255 263 268 272 275 278 281 284 286 289 291 294 296 297 298 297 295 292 290 288 286 285 284 283 283 282 282 282 282 283 283 283 284 284 284 284 284 284 284 284 285 286 286 287 288 288 288 287 287 287 286 286 286 286 286 285 286 286 286
104 114 133 153 161 165 164 171 175 175 171 171 171 170 168 170 171 173 181 197 205 212 220 231 240 244 247 256 265 269 271 275 278 281 285 288 292 295 298 301 302 303 301 299 296 294 292 290 289 287 286 285 284 284 283 283 282 281 281 280 280 279 279 278 279 279 278 279 280 280 281 282 283 283 283 283 283 283 284 284 285 285 286 286 286 286
117 127 140 144 152 157 150 160 166 169 168 163 160 158 156 163 170 174 175 182 202 228 240 241 247 252 255 259 265 268 271 274 278 282 286 290 295 300 304 307 307 306 304 301 298 296 294 292 291 289 288 287 286 285 284 283 282 282 282 280 280 280 279 278 278 278 277 277 277 277 278 279 279 280 281 281 282 283 284 285 286 286 286 286 286 286
108 118 124 117 112 104 100 129 144 151 149 143 141 140 143 150 155 157 160 179 218 245 255 253 253 254 258 259 264 268 270 274 278 284 289 295 301 306 310 310 309 306 304 300 298 296 294 292 290 288 287 285 284 284 284 284 285 286 287 287 287 286 285 284 283 282 281 281 280 279 279 279 279 280 281 282 283 284 286 286 286 286 286 286 285 285
90 91 95 89 85 81 81 104 125 132 125 115 111 111 113 115 118 130 188 236 248 253 259 259 259 258 259 260 264 268 271 277 283 291 298 304 309 312 313 311 308 305 301 298 296 293 292 290 288 287 286 285 285 287 289 290 293 295 296 296 295 294 293 291 289 288 286 285 284 283 282 281 281 281 282 283 284 284 285 285 285 285 285 284 284 284
77 70 71 69 68 69 71 85 103 113 105 96 89 82 73 69 69 241 247 249 250 253 258 261 261 262 264 267 270 273 278 287 298 309 315 316 317 316 313 309 306 302 299 296 294 293 293 291 290 291 290 291 292 295 297 299 301 302 302 300 299 297 295 293 291 290 288 287 286 284 283 282 282 282 282 283 283 284 284 284 284 284 284 284 283 283
81 69 64 66 68 67 64 67 83 99 100 96 90 78 47 2 283 257 248 247 248 250 257 263 265 267 270 278 284 286 287 300 315 324 323 320 317 314 309 306 304 302 300 299 298 299 300 300 300 301 301 301 302 303 304 305 305 304 303 301 299 297 294 292 291 289 288 287 286 284 284 283 282 282 282 282 282 282 283 283 283 283 283 283 284 284
81 77 66 66 73 81 76 61 75 99 111 110 112 119 160 249 258 257 253 251 249 249 250 257 264 270 280 291 300 297 289 280 285 297 305 307 307 305 304 305 305 305 306 307 308 310 312 312 312 311 310 308 307 307 307 306 306 304 302 299 297 294 291 290 289 287 287 286 285 285 284 283 283 282 281 281 281 281 281 282 282 283 283 284 284 284
70 73 70 61 67 80 94 97 107 123 123 129 139 158 189 221 239 250 256 257 260 263 253 241 251 265 287 302 308 307 304 290 292 300 313 315 311 309 309 313 316 317 317 318 320 321 321 320 317 314 312 309 308 307 307 306 305 303 300 296 293 291 289 288 287 286 286 286 286 285 284 283 282 281 280 280 279 280 280 280 281 281 282 283 283 284
63 64 70 60 56 60 84 107 107 101 101 129 166 234 243 232 230 235 247 257 267 283 303 243 236 246 278 302 313 323 337 322 316 318 326 322 318 317 319 323 326 328 328 327 326 326 324 321 317 314 311 309 308 307 307 305 303 300 297 294 291 289 287 286 286 286 286 286 286 285 284 283 282 281 281 280 280 280 280 280 280 280 281 281 282 282
66 65 70 68 64 58 69 77 74 78 91 127 195 243 255 244 219 209 220 238 252 271 297 283 260 245 239 266 293 317 342 333 321 318 322 321 321 323 325 328 330 331 331 329 327 324 322 319 316 314 311 310 308 307 305 304 301 298 295 293 291 289 288 287 287 287 287 287 287 286 284 283 283 283 282 282 281 281 280 280 279 279 279 280 280 281
60 65 70 70 69 72 142 91 79 84 110 157 193 220 237 232 192 172 192 215 234 263 303 314 306 287 252 241 250 277 305 293 289 295 307 307 311 319 330 327 324 323 326 326 322 317 316 315 313 311 309 307 305 304 302 300 298 296 294 292 291 290 289 289 289 289 289 288 287 287 285 285 285 284 284 283 282 282 281 280 279 279 279 279 279 280
45 48 49 36 7 330 329 96 139 179 199 192 197 205 220 197 150 145 165 199 269 319 350 351 327 306 287 265 245 224 207 245 282 302 305 289 276 270 284 301 299 300 310 314 308 303 303 307 307 306 302 300 300 299 296 296 295 295 294 293 292 291 291 291 291 291 291 290 290 289 288 288 287 286 286 285 284 283 282 281 281 281 280 280 280 280
46 45 34 354 323 304 301 205 204 220 225 215 210 206 187 111 116 128 137 151 327 345 17 12 341 312 295 277 253 209 173 154 338 318 304 287 266 234 183 283 294 295 300 301 294 292 294 297 293 288 287 287 287 287 289 291 293 295 294 294 293 294 294 294 295 294 294 293 293 292 291 291 290 289 289 288 287 286 286 285 285 284 284 283 283 283
76 82 96 273 278 276 270 238 229 235 247 243 226 154 123 119 118 121 125 140 111 21 41 33 0 328 307 294 274 211 148 116 109 285 295 286 274 232 156 246 298 296 294 290 286 285 288 283 274 268 270 278 283 287 291 294 295 296 295 295 296 296 297 297 297 297 297 297 296 295 295 294 293 292 291 291 290 290 289 288 287 287 286 285 285 284
83 110 159 214 251 270 286 287 281 280 301 333 1 40 90 121 124 119 122 131 112 67 61 72 48 326 307 308 305 292 122 104 107 278 289 288 279 249 157 168 277 287 289 284 279 277 278 275 270 267 266 276 284 290 294 296 296 296 296 296 297 297 298 299 299 300 300 299 299 298 297 296 295 293 292 292 291 290 289 288 287 286 284 284 283 282
53 91 149 217 252 273 297 312 311 314 331 348 4 19 36 43 66 95 118 124 117 103 96 112 152 188 217 287 290 283 121 114 94 295 298 292 285 268 174 169 234 271 281 279 275 270 266 266 265 267 273 285 290 294 297 297 297 296 296 296 296 297 298 299 300 300 301 300 299 298 297 295 294 292 291 289 288 287 286 285 283 282 281 280 279 279
27 203 184 214 240 263 290 292 285 275 258 226 151 82 48 25 34 63 100 121 132 138 143 154 189 205 190 240 261 267 158 143 233 300 301 294 290 281 214 187 241 266 273 273 270 266 260 260 265 272 280 289 293 296 297 297 296 295 295 295 295 296 296 298 299 299 299 299 298 296 295 293 292 291 289 289 288 287 286 284 283 282 281 281 280 280
174 217 211 201 199 229 318 285 257 230 206 185 155 128 109 69 42 55 91 128 141 144 145 159 196 225 219 242 260 267 207 116 1 315 296 291 287 281 243 207 247 267 273 269 264 259 256 259 269 278 286 290 293 295 296 295 294 294 293 293 293 294 295 296 297 298 298 297 296 295 294 294 293 292 292 291 291 290 288 287 286 286 285 284 284 283
159 216 224 189 161 133 297 261 243 223 194 158 126 104 98 77 21 351 229 166 145 135 131 173 215 226 223 244 261 268 254 43 358 322 299 291 285 278 246 207 234 263 272 268 261 256 253 262 267 274 281 289 292 293 294 293 293 292 291 291 291 292 293 294 295 295 296 296 296 296 296 296 295 294 293 292 292 290 289 289 288 287 287 286 285 285
159 204 224 196 177 171 202 230 229 213 179 150 134 124 155 158 223 250 228 190 174 176 192 215 223 224 221 240 254 259 226 101 80 305 302 294 288 282 260 206 218 259 270 269 268 266 265 269 270 275 281 289 291 293 292 292 291 290 289 289 289 290 291 292 293 294 295 296 298 298 298 297 296 295 293 292 291 290 289 288 288 287 286 285 284 284
158 188 210 203 198 198 207 218 219 207 181 170 169 175 179 175 186 198 197 186 186 196 207 218 227 236 243 258 269 274 251 148 138 135 307 286 286 286 276 229 253 276 274 275 281 289 295 287 280 281 285 289 290 290 290 289 288 287 286 287 287 288 289 291 293 295 297 298 299 299 298 297 295 294 293 292 291 290 289 288 288 287 286 286 284 283
163 183 198 202 205 207 208 214 214 207 193 192 193 192 190 184 183 182 176 172 173 181 198 242 296 309 302 294 292 292 279 147 119 113 126 269 276 280 284 308 310 297 287 286 292 302 308 298 289 283 284 285 285 285 285 285 285 285 284 285 286 287 289 292 295 298 299 300 299 298 297 296 295 294 294 293 293 292 291 290 290 290 289 288 287 286
172 189 204 208 212 217 225 232 224 206 195 200 206 214 214 218 205 170 133 129 136 145 345 334 322 310 298 296 294 293 282 91 111 119 145 256 274 281 288 307 313 304 297 300 307 315 312 301 293 284 278 277 278 279 281 282 282 283 283 284 287 290 293 296 299 300 300 300 299 298 297 296 296 296 296 295 295 294 294 294 293 293 292 292 291 290
139 209 263 287 297 305 314 321 320 311 291 234 209 205 204 211 242 335 19 16 254 261 280 287 286 283 282 287 286 284 283 306 117 129 146 235 282 291 296 310 316 308 303 308 315 317 308 297 290 281 271 270 273 275 278 280 282 283 285 288 292 296 298 300 300 300 300 299 299 298 297 297 297 297 298 298 298 297 297 297 297 296 296 295 294 293
11 360 353 349 345 342 340 339 332 325 320 310 292 262 218 185 194 263 266 256 247 250 263 274 281 285 288 287 280 278 284 299 154 137 140 184 282 290 295 313 333 325 312 311 310 304 296 289 283 276 270 267 272 277 279 282 286 290 294 297 300 301 301 300 300 300 299 299 298 298 297 297 298 298 299 299 299 299 299 299 299 298 298 297 296 295
10 5 0 355 350 346 342 338 333 327 320 312 305 298 286 255 239 262 265 252 236 238 258 272 282 289 293 290 286 283 287 282 249 163 135 137 262 275 283 313 344 344 324 311 302 293 284 277 272 270 269 275 285 292 288 291 297 302 305 303 302 301 300 299 299 299 298 298 298 298 297 298 298 299 300 300 301 301 301 301 300 300 299 298 297 296
12 7 2 356 352 349 346 341 334 326 318 311 305 301 300 293 271 265 265 253 241 252 265 272 278 285 291 292 292 290 286 274 260 143 113 108 239 268 280 324 346 345 334 314 304 291 275 266 262 263 270 288 297 299 293 300 303 305 303 300 299 297 296 296 296 297 297 297 297 297 298 298 299 299 300 301 301 301 301 301 301 300 299 297 295 291
3 2 360 354 351 349 345 335 325 319 317 314 310 306 304 303 275 255 255 232 229 247 262 270 275 279 286 292 293 292 285 275 265 120 102 101 241 274 297 328 329 327 345 323 312 303 291 279 272 269 274 289 289 286 285 291 291 289 290 291 290 290 291 292 293 295 296 296 297 297 298 298 299 300 300 300 301 301 301 301 301 300 297 293 288 284
340 343 335 330 331 333 329 317 311 310 313 314 313 311 309 302 265 232 220 205 210 225 243 257 263 266 269 278 283 284 283 273 256 158 110 118 226 259 272 307 299 287 293 325 315 309 307 302 293 284 285 292 291 285 280 276 273 270 268 273 276 279 282 287 290 293 295 296 297 297 298 298 299 299 299 299 300 300 300 300 300 299 294 288 282 278
312 316 309 306 309 312 313 311 309 308 309 311 309 307 301 289 254 208 191 189 191 199 216 236 247 253 253 255 259 263 271 266 227 184 143 158 229 245 213 259 274 269 237 252 278 289 298 296 294 294 296 295 289 282 274 267 263 261 260 261 263 270 278 284 289 292 294 295 296 296 296 297 297 297 297 298 298 298 298 298 298 296 291 284 278 274
315 315 309 312 314 314 314 313 313 311 309 307 303 299 296 286 258 217 190 185 183 186 193 215 236 248 251 251 253 257 263 260 231 212 199 194 225 250 245 261 272 274 269 257 256 261 270 281 289 295 294 287 280 273 268 264 261 258 255 256 259 267 275 281 285 288 289 291 292 293 293 294 294 294 295 295 296 296 296 296 295 293 289 284 279 278
333 328 324 325 324 322 319 318 315 313 312 309 307 303 299 290 268 226 189 181 180 181 182 199 220 239 251 257 259 260 262 258 258 255 242 217 229 260 271 271 275 280 283 276 268 265 268 277 287 294 295 290 281 270 265 263 261 257 247 246 254 265 273 277 279 280 281 283 284 285 287 288 288 289 290 291 291 292 292 292 291 290 290 288 286 286
339 331 327 326 325 322 320 318 315 312 310 311 311 313 322 334 343 356 41 126 163 177 185 196 207 218 228 245 258 264 266 263 276 286 286 260 254 265 272 267 267 272 278 277 277 277 278 281 286 292 297 297 293 282 261 252 251 252 246 243 250 259 266 268 271 274 277 278 277 275 274 275 277 279 281 283 285 286 288 289 290 291 291 291 291 290
338 326 317 315 314 312 310 308 305 303 301 304 310 319 337 350 357 359 2 358 333 275 239 227 219 213 209 218 234 249 261 262 275 289 291 277 266 263 267 263 262 262 267 272 274 276 279 283 287 289 292 295 296 295 284 266 260 266 270 264 263 263 264 262 262 265 271 274 274 273 269 267 265 266 269 276 280 283 286 289 291 292 292 291 290 288
324 308 298 295 292 292 293 294 291 289 289 295 302 312 321 328 330 329 326 312 296 281 269 258 248 238 230 223 225 231 243 246 251 258 263 258 253 251 258 263 261 256 253 263 268 272 277 281 285 286 285 285 289 295 301 303 301 295 288 283 279 276 273 266 260 257 261 266 269 270 268 265 264 264 266 274 279 284 287 289 290 290 290 289 288 287
303 291 284 279 272 269 273 276 279 280 286 281 280 281 282 285 286 287 286 276 268 263 261 261 260 256 251 249 243 236 234 235 236 237 239 237 236 238 247 257 258 253 245 251 259 265 270 276 281 283 283 280 282 287 296 303 304 302 296 291 286 281 276 269 261 255 255 261 267 271 272 270 269 268 270 275 279 283 285 284 284 285 286 286 286 286
280 274 272 263 250 239 241 259 270 277 282 274 261 253 257 263 265 265 262 257 253 249 246 248 252 255 253 253 251 248 244 237 232 229 227 226 226 229 238 248 252 251 245 244 248 253 258 264 270 276 282 285 287 288 291 294 296 298 300 298 292 282 273 272 270 269 265 267 272 276 277 275 273 272 271 272 273 273 274 275 276 277 280 283 285 286
260 257 255 249 238 230 236 256 267 270 266 264 266 271 278 288 290 286 275 266 259 252 243 241 244 250 251 252 254 255 253 244 235 227 219 217 220 226 232 240 247 250 248 244 244 245 249 256 262 267 272 279 284 288 290 289 290 294 298 299 297 292 287 288 286 282 277 271 271 273 276 274 271 269 268 267 265 264 265 268 271 274 275 275 280 284
253 255 260 263 265 270 276 276 276 273 255 215 240 323 320 320 316 312 307 302 292 282 272 267 269 274 276 270 264 260 257 254 245 236 225 221 224 228 233 237 242 246 247 247 245 245 246 253 260 264 267 272 277 281 282 282 285 288 291 290 289 291 293 291 288 284 280 274 271 271 275 279 279 278 275 274 269 264 261 263 267 270 271 266 264 267
264 274 292 301 296 286 282 282 281 280 276 254 343 317 302 297 294 295 299 300 295 289 285 287 290 292 291 284 274 265 257 255 250 243 237 231 230 230 233 236 238 240 242 247 248 248 247 252 257 261 265 269 273 277 278 279 280 281 281 282 286 290 291 286 283 281 282 280 278 277 279 281 282 281 280 277 274 269 265 262 263 266 268 264 258 254
279 291 301 293 280 272 272 276 281 286 292 306 305 288 269 259 265 274 282 280 279 278 278 277 279 282 286 286 282 272 260 251 246 242 238 233 230 229 231 233 234 235 235 244 250 253 252 252 254 257 261 264 267 271 275 279 280 279 276 279 285 290 291 289 288 287 285 283 282 280 277 277 277 277 276 276 274 272 268 266 265 265 265 264 261 257
287 290 281 269 263 263 269 272 278 284 291 289 284 280 277 268 270 276 282 279 280 281 281 277 276 277 280 283 285 282 273 263 255 249 245 238 231 227 228 229 230 231 229 236 245 254 258 257 256 257 259 262 264 268 272 276 279 279 277 278 278 278 277 286 292 293 289 284 281 278 273 274 276 277 278 277 275 272 268 264 261 259 258 257 257 256
276 274 267 264 262 262 264 268 275 282 285 283 280 277 282 274 272 274 278 278 280 280 277 278 280 281 281 284 288 290 287 282 276 269 264 256 248 241 232 227 226 227 227 231 236 244 254 260 262 263 263 262 262 264 268 273 277 278 278 277 276 274 272 278 283 286 285 284 282 279 274 274 277 280 281 278 275 271 266 262 259 257 254 251 251 252
265 265 265 264 262 263 267 274 279 282 280 277 275 274 275 269 268 270 273 274 276 275 273 271 273 278 283 290 293 295 291 287 282 276 270 268 260 251 240 232 228 227 229 232 235 238 243 253 260 266 269 267 265 263 263 268 273 276 278 278 277 276 275 276 276 277 278 280 280 278 274 274 276 277 278 278 276 273 267 263 260 258 256 254 252 251
265 264 262 260 258 261 266 276 280 281 279 275 274 272 272 268 267 269 271 269 269 271 272 268 267 270 278 284 288 289 288 287 283 277 267 263 260 258 253 245 239 235 234 237 239 241 244 247 251 257 264 268 269 268 265 266 268 271 275 277 277 276 275 275 274 274 274 273 273 274 274 275 275 275 275 276 276 275 272 266 262 258 257 257 256 256
265 264 262 262 264 268 273 277 278 278 278 278 277 276 274 272 275 277 277 274 274 278 281 278 274 274 275 276 276 279 281 282 282 279 272 264 259 258 255 252 248 245 244 244 246 247 247 246 245 246 251 258 264 268 269 267 266 267 270 273 274 274 273 273 273 271 269 266 264 263 264 269 272 274 277 278 277 276 275 271 267 263 261 263 265 265
272 273 273 276 276 277 277 277 277 277 278 280 281 279 274 276 283 288 289 287 285 282 281 278 276 276 275 274 274 275 277 279 279 278 272 266 262 261 259 255 254 255 256 253 251 250 249 246 241 238 237 243 251 259 266 266 265 264 266 267 268 269 271 272 272 271 269 267 263 259 256 259 263 267 273 276 278 279 280 280 278 275 272 272 271 270
295 290 286 285 282 280 277 276 277 279 281 283 284 283 277 275 275 279 281 281 280 277 274 273 274 275 276 276 275 275 275 275 275 274 269 266 267 268 268 266 268 270 272 268 263 260 258 253 244 236 231 232 237 245 257 261 264 264 263 262 262 264 267 271 272 272 271 272 270 266 262 263 263 265 269 275 280 283 285 285 283 280 276 272 269 267
299 294 288 282 279 277 277 277 279 280 280 280 279 277 275 270 265 262 265 272 275 275 274 272 271 272 274 275 275 274 274 274 274 274 269 268 270 272 274 274 278 282 285 285 283 281 279 279 272 256 240 233 232 235 244 252 259 264 265 262 261 263 266 271 273 274 274 275 275 274 273 272 272 273 273 278 283 285 286 285 283 279 275 272 269 267